Regional Weather Roundup
Issued by NWS Upton, NY

Current Version | Previous Version | Text Only | Print | Product List | Glossary On
Versions: 1 2 3 4 5 6 7 8 9 10 11 12 13 14 15 16 17 18 19 20 21 22 23 24 25 26 27 28 29
000
ASUS41 KOKX 260304
RWROKX

REGIONAL WEATHER ROUNDUP
NATIONAL WEATHER SERVICE NEW YORK NY
1100 PM EDT THU AUG 25 2016

NOTE: "FAIR" INDICATES FEW OR NO CLOUDS BELOW 12,000 FEET WITH NO
SIGNIFICANT WEATHER AND/OR OBSTRUCTIONS TO VISIBILITY.

NYZ071-072-176-178-NJZ106-104-260400-
NEW YORK CITY METRO AREA

CITY           SKY/WX    TMP DP  RH WIND       PRES   REMARKS
Central Park     N/A     81  70  69 MISG        N/A
LaGuardia APRT PTCLDY    81  70  69 SW9       30.00S
Kennedy INTL   PTCLDY    76  72  87 SW8       30.02S
Newark/Liberty PTCLDY    80  70  71 SW10      30.00S
Bronx Bot Gard   N/A     81  68  65 SE3       30.01S
Wall St Helipt CLEAR     79  72  78 W5        30.01F
Teterboro      CLEAR     78  71  79 SW5       29.99S
$$

NYZ177-179-078>081-260400-
LONG ISLAND NEW YORK

CITY           SKY/WX    TMP DP  RH WIND       PRES   REMARKS
Farmingdale    CLEAR     76  69  79 SW9       30.01F
MacArthur/ISP  PTCLDY    76  71  85 SW10      30.00F
Shirley        PTCLDY    76  70  82 SW9       30.02F
Riverhead      NOT AVBL
Westhampton    CLOUDY    75  69  81 SW7       30.04F
Southampton      N/A     73  72  94 SW5       29.98F
Bridgehampton    N/A     73  70  88 S2        30.01F
East Hampton   CLOUDY    73  70  88 SW8       30.02F
Montauk          N/A     74  71  91 S9        30.03F
$$

NYZ052-065-067-260400-
HUDSON VALLEY

CITY           SKY/WX    TMP DP  RH WIND       PRES   REMARKS
White Plains   CLOUDY    75  71  87 CALM      30.01F
Newburgh       CLEAR     73  72  94 CALM      30.02F
Montgomery     CLEAR     71  70  96 CALM      30.00F
Poughkeepsie   PTCLDY    73  69  87 CALM      29.99F
Albany         CLEAR     73  69  87 S6        29.96F
$$

NJZ001-105-106-008-010-013-015-019>022-104-260400-
NEW JERSEY

CITY           SKY/WX    TMP DP  RH WIND       PRES   REMARKS
Newark/Liberty PTCLDY    80  70  71 SW10      30.00S
Teterboro      CLEAR     78  71  79 SW5       29.99S
Caldwell       CLEAR     77  72  84 CALM      30.01S
Morristown     FOG       70  70 100 CALM      30.01S VSB 1/2
Somerville     CLEAR     72  70  93 CALM      30.00S FOG
Linden         FAIR      79  69  71 CALM      30.02S
Sussex         CLEAR     71  70  96 CALM      30.01S FOG
Abdover          N/A     71  69  93 CALM      30.03S
Trenton        CLEAR     76  70  82 S5        30.01S
Millville      CLEAR     75  73  93 CALM      30.04F
Atlantic City  CLEAR     75  67  76 S7        30.03F
Wrightstown    CLEAR     73  70  89 SW3       30.00S
Toms River     CLEAR     74  68  81 SW5       30.03S
Belmar         CLEAR     75  67  76 S6        30.04S
$$

PAZ047>061-062-071-260400-
EASTERN PENNSYLVANIA

CITY           SKY/WX    TMP DP  RH WIND       PRES   REMARKS
Philadelphia   CLEAR     79  70  74 S8        30.02F
Allentown      CLEAR     76  70  82 SW3       30.01F
Scranton       CLEAR     73  70  90 CALM      30.01S
$$

CTZ002-004>006-009-010-012-RIZ004-006-007-MAZ004-011-015-260400-
SOUTHERN NEW ENGLAND
 IN CT

CITY           SKY/WX    TMP DP  RH WIND       PRES   REMARKS
Bradley INTL   PTCLDY    75  65  70 S7        30.00S
Hartford       CLEAR     77  67  71 S5        29.99S
Danbury        PTCLDY    73  68  84 CALM      30.02F
Wtrbury/Oxford   N/A     72  64  78 CALM      30.05S
Bridgeport     MOCLDY    78  71  79 SW6       30.00F
Meriden        MOCLDY    76  68  76 S5        30.00F
New Haven      PTCLDY    76  70  82 SW6       30.01S
Chester        MOCLDY    73  70  88 S5        30.02F
Groton         CLOUDY    76  70  82 S6        30.01F
Wilimantic     PTCLDY    74  68  81 S5        30.02S

 IN RI

CITY           SKY/WX    TMP DP  RH WIND       PRES   REMARKS
Providence     CLOUDY    74  66  76 SW10      30.01F
Block Island   MOCLDY    74  69  85 SW12      30.03F
Westerly       CLOUDY    74  67  78 S8        30.02F
 IN MA

CITY           SKY/WX    TMP DP  RH WIND       PRES   REMARKS
Boston         CLOUDY    75  65  70 S10       29.99R
Worcester      MOCLDY    70  64  81 SW12      30.02F
Westfield      PTCLDY    73  66  78 S6        29.99S
Provincetown   PTCLDY    71  67  87 S12       30.02S
Nantucket      CLEAR     71  68  90 S10       30.05F
$$

ANZ330-335-338-340-345-350-353-355-260400-
COASTAL MARINE OBSERVATIONS


STATION/POSITION TIME  SKY/WX   TEMP    WIND        PRES    VSBY  WAVE
                                AIR SEA DIR/SP/G                  HT/PER
                 (UTC)          (F)     (DEG/KT/KT) (MB)    (MI)  (FT/S)
NY HARB ENTRANCE 0150            76 72  210/ 16/ 16 1016.1          4/ 5
20S FIRE ISLAND  0150            77 74  220/ 17/ 21 1016.3          4/ 5
GREAT SOUTH BAY  0215            77 79  220/ 16/ 19   N/A
23 SSW MONTAUK P 0150            76 74  220/ 16/ 17 1017.4          4/ 5
15 E BARNEGAT LI 0200               75                N/A           3/ 5
HUDSON CANYON    0150            78 78              1017.9          3/ 4
KINGS POINT      0200            79 76              1015.8
EXECUTION ROCKS  0200            78     180/  8/ 10   N/A
CENTRAL LI SOUND 0200            77 75  210/ 14/ 16   N/A           2/ 3
EASTERN LI SOUND 0200            72 70  230/  4/  6   N/A
ROBBINS REEF     0200            80                 1015.5
$$


>>>>>>>>>>>>>>>>>>>>>>>>>>>> KEY <<<<<<<<<<<<<<<<<<<<<<<<<<<
>                                                          <
>     SKY/WX - Sky Condition/Present Weather               <
>     TMP    - Temperature in Fahrenheit                   <
>     DP     - Dew Point in Fahrenheit                     <
>     RH     - Relative Humidity in Percent                <
>     WIND   - Direction (from) and Speed in MPH           <
>     PRES   - Mean Sea Level Pressure (inches of Hg)      <
>     WCI    - Wind Chill Index                            <
>     VSB    - VISIBILITY IN MILES                         <
>     HX     - HEAT INDEX                                  <
>     TC     - TEMPERATURE IN CELSIUS                      <
>     VRB    - VARIABLE WIND DIRECTION                     <
>                                                          <
>>>>>>>>>>>>>>>>>>>>>>>>>>>> KEY <<<<<<<<<<<<<<<<<<<<<<<<<<<




USA.gov is the U.S. government's official web portal to all federal, state and local government web resources and services.